Dewpoint
39 35 33 31 23 21 19 18 18 19 19 21 16 17 17 38 49 50 51 54 55 56 58 59 62 62 63 64 67 68 69 70 71 71 70 68 68 68 68 67 68 70 71 71
37 35 36 35 29 21 19 17 16 17 17 16 16 17 19 34 47 49 51 52 53 54 56 58 61 62 63 64 66 68 69 69 70 71 71 69 68 67 67 68 69 71 72 71
34 36 37 34 32 26 19 15 15 15 16 15 16 17 15 17 25 36 49 52 53 53 54 56 59 62 63 64 66 68 69 70 70 72 70 68 68 68 68 69 69 70 72 71
29 33 33 30 28 26 22 21 18 17 18 13 16 11 15 14 17 20 25 46 51 52 54 56 59 62 63 64 66 68 69 71 72 72 70 67 67 67 67 68 69 70 72 71
20 23 27 28 28 22 21 21 18 18 15 12 13 10 13 16 13 14 21 34 42 51 53 56 58 62 63 64 66 68 70 72 73 72 71 68 66 66 66 67 68 68 71 71
14 18 21 22 22 21 21 20 16 15 11 9 10 10 11 12 11 20 34 39 46 49 53 56 58 62 64 66 67 70 72 73 72 71 70 68 67 67 67 68 68 68 69 69
15 14 15 18 17 19 17 14 14 13 10 11 10 12 13 17 17 23 23 33 51 52 53 57 59 64 65 67 68 71 72 72 71 71 69 69 70 69 69 68 67 66 66 67
14 13 15 17 15 14 16 14 15 10 11 12 14 11 13 16 17 21 25 36 53 52 53 57 60 65 67 67 70 71 72 71 72 71 70 69 68 67 66 69 69 67 67 68
14 12 15 15 15 16 16 14 15 11 12 11 13 14 19 24 33 35 30 48 53 53 54 59 62 67 68 69 71 71 70 69 70 69 68 67 65 65 65 64 70 68 68 68
17 21 21 19 16 16 13 15 12 13 14 12 12 15 18 23 38 44 40 45 52 57 60 62 65 70 71 71 69 68 68 67 67 67 68 66 64 65 65 68 69 69 68 67
26 22 21 24 18 16 16 15 16 13 12 10 11 15 25 37 50 55 64 65 66 68 68 70 70 70 69 67 68 66 66 67 68 69 69 66 66 67 68 69 69 68 67 66
33 24 24 23 23 18 16 14 14 16 12 18 16 15 47 47 54 62 65 67 68 68 68 68 67 67 67 66 67 66 66 67 68 68 69 69 69 70 70 69 68 67 66 66
33 28 26 26 24 20 16 15 14 16 15 14 16 17 51 56 58 62 64 66 68 68 68 68 67 66 66 66 66 66 67 68 68 68 68 68 69 69 68 68 67 67 66 65
42 32 30 27 28 30 30 20 19 18 17 16 14 14 45 55 58 61 63 65 66 67 68 68 68 67 68 67 66 66 67 69 68 66 68 69 69 68 67 68 67 67 67 66
31 25 35 34 34 35 34 38 20 25 31 19 23 25 39 54 54 56 61 61 64 66 67 67 67 66 67 67 67 66 67 68 69 68 68 68 68 68 68 68 68 68 67 67
35 29 37 34 32 37 40 45 45 46 49 46 46 46 54 56 59 60 60 61 64 65 66 66 66 67 67 67 67 67 68 67 68 69 68 68 68 67 67 68 68 68 67 67
30 33 30 26 29 36 39 44 48 50 51 51 45 50 57 56 57 57 57 59 61 64 65 65 66 67 68 68 68 68 68 68 68 68 68 68 68 67 67 67 67 67 66 65
38 39 41 30 32 36 43 47 48 49 50 53 53 54 57 57 55 55 56 58 58 61 64 65 66 66 67 68 68 68 68 68 68 68 68 68 67 66 66 65 65 65 66 65
36 37 35 27 33 40 43 46 46 47 46 52 53 53 53 58 53 52 58 58 59 60 62 65 64 63 63 64 66 70 69 68 68 66 65 65 65 64 64 64 63 63 64 65
40 37 27 34 29 34 44 50 54 49 41 52 53 54 53 54 47 51 58 59 60 61 59 65 62 61 59 61 63 65 65 65 65 63 63 62 62 63 62 63 64 64 62 62
40 41 38 39 34 44 50 50 53 37 38 52 53 53 53 53 52 54 57 61 62 64 64 66 64 63 62 62 60 59 59 60 61 62 62 61 61 62 62 61 62 62 62 61
39 39 36 36 35 36 47 52 45 49 52 53 52 51 54 54 54 54 59 60 61 62 63 63 62 62 62 62 62 62 62 61 59 59 59 59 60 60 61 59 59 60 61 61
39 40 39 39 39 46 47 54 52 52 53 55 54 53 55 56 56 59 60 59 61 61 61 61 60 59 58 58 58 58 58 60 62 63 62 62 62 61 61 59 60 61 61 60
47 47 43 42 46 48 52 53 55 52 54 57 59 59 55 57 58 59 58 58 58 58 59 59 58 57 57 57 56 55 56 56 56 56 57 59 59 62 63 62 63 64 62 61
45 47 43 42 49 50 50 52 53 53 53 54 57 60 59 59 59 58 57 57 57 57 57 58 56 56 56 56 56 57 55 55 54 54 55 56 58 59 59 61 58 57 63 60
47 41 41 41 46 48 47 51 54 53 52 53 55 58 59 59 58 58 57 57 56 55 55 55 54 54 54 54 54 55 56 53 52 53 53 53 55 56 58 59 61 50 47 45
Lifted_Index
3 4 4 3 3 3 3 3 2 1 1 1 1 1 1 0 -1 -2 -2 -3 -3 -3 -3 -3 -4 -4 -4 -4 -4 -4 -4 -4 -4 -4 -4 -4 -4 -3 -3 -2 -2 -2 -2 -3
2 3 3 2 2 3 3 3 2 2 1 1 1 1 1 0 -1 -2 -2 -2 -3 -3 -3 -3 -4 -4 -4 -4 -4 -4 -4 -4 -4 -5 -5 -4 -4 -4 -3 -3 -2 -2 -3 -3
2 2 2 1 1 2 3 3 2 2 2 1 1 1 1 0 -0 -1 -1 -2 -2 -2 -3 -3 -3 -4 -4 -4 -4 -4 -4 -5 -5 -5 -5 -5 -5 -5 -4 -4 -3 -3 -3 -4
1 1 1 1 1 1 2 2 2 2 2 1 1 1 1 1 1 0 -0 -1 -1 -2 -2 -3 -3 -4 -4 -5 -4 -5 -5 -5 -5 -5 -6 -6 -6 -6 -5 -5 -4 -4 -4 -4
1 1 1 1 1 1 1 2 2 2 2 1 1 1 2 2 1 1 1 0 -0 -1 -2 -2 -3 -4 -4 -5 -5 -5 -6 -6 -6 -6 -6 -6 -6 -6 -5 -5 -4 -4 -4 -4
1 1 1 1 1 1 1 1 1 1 1 1 1 2 2 2 2 2 1 1 0 -1 -2 -2 -3 -4 -5 -5 -5 -6 -7 -7 -7 -7 -7 -7 -6 -6 -5 -5 -5 -4 -4 -4
1 1 1 1 1 1 1 1 1 0 0 0 1 2 2 2 2 2 2 1 -0 -1 -2 -2 -3 -4 -5 -6 -6 -7 -8 -8 -7 -7 -7 -7 -6 -4 -3 -4 -5 -5 -4 -4
0 1 1 1 1 1 1 0 0 -0 -0 -0 0 1 2 2 1 1 2 1 -0 -1 -2 -3 -4 -5 -6 -6 -6 -7 -8 -8 -8 -8 -7 -6 -4 -2 -1 -2 -4 -5 -4 -4
0 1 1 1 1 0 0 0 -0 -0 -0 -0 -0 1 1 1 1 1 1 0 -1 -2 -2 -3 -4 -6 -6 -6 -7 -8 -8 -8 -8 -8 -7 -6 -4 -1 -0 -1 -4 -5 -4 -4
1 1 1 1 0 0 -0 -0 -0 -0 -0 -0 -0 0 1 1 0 -0 -1 -2 -3 -3 -4 -5 -6 -7 -7 -7 -7 -7 -7 -8 -8 -7 -6 -5 -3 -2 -1 -3 -4 -5 -4 -4
1 1 1 1 1 0 -0 -0 -0 -0 -0 -0 -0 -0 0 -1 -2 -3 -4 -5 -5 -6 -6 -7 -7 -7 -7 -7 -7 -8 -8 -8 -7 -7 -6 -5 -4 -3 -4 -5 -5 -5 -4 -4
1 1 1 1 1 1 0 -0 -0 -0 -0 -0 -0 -0 -1 -2 -4 -6 -7 -8 -8 -8 -8 -8 -8 -8 -8 -8 -8 -8 -8 -8 -7 -7 -6 -6 -5 -6 -6 -6 -5 -5 -4 -3
1 1 0 1 1 1 0 0 -0 -0 -0 -0 -0 -0 -2 -4 -6 -7 -8 -9 -9 -8 -8 -8 -8 -8 -8 -8 -9 -9 -8 -8 -7 -7 -6 -6 -6 -7 -6 -6 -5 -4 -4 -3
1 0 0 0 1 0 0 -0 -0 -0 -0 -0 0 -0 -2 -4 -6 -7 -8 -8 -8 -8 -8 -8 -7 -7 -7 -8 -8 -8 -7 -7 -7 -7 -6 -6 -7 -7 -6 -6 -5 -4 -4 -3
1 0 0 0 0 -0 -1 -1 -1 -1 -1 -1 -1 -1 -2 -4 -6 -7 -7 -7 -8 -8 -8 -8 -7 -6 -6 -7 -8 -7 -7 -7 -7 -7 -6 -7 -7 -7 -6 -6 -5 -4 -3 -3
0 0 0 0 0 -1 -2 -2 -2 -2 -2 -2 -2 -2 -3 -4 -5 -6 -5 -6 -6 -7 -8 -8 -7 -7 -7 -7 -8 -7 -7 -7 -7 -7 -7 -7 -7 -7 -7 -6 -5 -4 -4 -3
0 0 0 0 0 -1 -2 -2 -3 -3 -3 -2 -3 -3 -4 -4 -4 -4 -4 -4 -5 -6 -7 -7 -8 -7 -7 -8 -8 -8 -8 -8 -8 -7 -7 -7 -7 -7 -7 -6 -5 -5 -4 -4
0 0 0 0 -0 -1 -2 -2 -2 -3 -2 -3 -3 -4 -4 -4 -4 -3 -3 -3 -3 -4 -5 -6 -6 -7 -7 -7 -8 -8 -8 -8 -8 -8 -8 -8 -7 -7 -7 -6 -6 -5 -4 -4
0 0 0 0 -1 -2 -2 -2 -2 -2 -2 -3 -3 -4 -4 -4 -3 -3 -2 -2 -2 -2 -2 -3 -4 -5 -5 -6 -8 -9 -9 -9 -9 -8 -8 -8 -8 -7 -7 -6 -5 -5 -4 -3
-1 -0 -1 -1 -1 -2 -3 -3 -2 -1 -1 -2 -3 -3 -3 -3 -2 -2 -2 -2 -2 -1 -1 -2 -3 -3 -4 -5 -7 -9 -9 -9 -9 -9 -8 -8 -8 -7 -6 -5 -5 -4 -3 -3
-1 -1 -1 -1 -1 -2 -2 -3 -2 -1 -0 -1 -1 -2 -2 -2 -1 -1 -2 -2 -2 -2 -2 -2 -3 -4 -4 -5 -6 -7 -7 -8 -8 -8 -8 -7 -6 -5 -4 -4 -3 -3 -3 -3
-1 -1 -1 -1 -1 -1 -2 -2 -2 -1 -0 -0 -0 -0 -1 -1 -1 -1 -2 -2 -2 -2 -3 -3 -3 -4 -4 -4 -4 -4 -5 -5 -5 -5 -5 -4 -4 -3 -3 -2 -2 -2 -2 -2
-1 -1 -0 -0 -1 -1 -1 -2 -2 -1 -1 -0 -0 -0 -0 -1 -1 -2 -2 -1 -0 -1 -2 -2 -3 -3 -2 -2 -2 -2 -2 -2 -2 -2 -2 -2 -2 -2 -2 -2 -1 -1 -2 -2
-0 0 0 0 -0 -0 -1 -1 -0 -0 -0 -0 -0 -1 -1 -2 -2 -2 -1 0 1 0 -1 -1 -1 -1 -1 -0 -0 0 0 1 1 1 1 1 0 -1 -1 -1 -1 -1 -2 -2
0 0 1 1 1 0 0 1 1 2 1 1 0 -1 -1 -2 -2 -2 -1 1 1 1 0 0 0 0 1 1 1 2 2 2 2 2 2 2 2 1 0 -0 -1 -1 -2 -2
0 1 1 1 1 0 0 1 2 2 3 2 1 0 -1 -2 -2 -2 -1 0 1 1 1 1 1 1 1 2 2 2 3 3 3 3 3 3 3 2 1 1 -0 -1 -1 -2